Weather in Petrovka

Russia / Republic of Bashkortostan     52°21′10″N   57°26′48″E
temp.,
°C
wind,
m/s
gust,
m/s
humid.,
%
clouds,
%
prec.,
mm/h
press.,
hPa
HPBL,
m
28 february, sun
sun2823:00−8ese1297100 1.6 100493
02:00−6ese2297100 0.6 100277
05:00−5se1398100 2.3 1001147
08:00−5se1398100 1.6 1001199
11:00−2ssw3698100 3.1 1000477
14:00−1sw4799100 1.8 1000625
17:00−2w4896100 3.1 1002583
20:00−7wsw389696 0.4 1005302
1 march, mon
mon123:00−11wsw369898 0.5 1009185
02:00−14wsw2699100 0.1 1011140
05:00−16w2699100 0.1 1013131
08:00−16w2697100 0.1 1015191
11:00−13w359599 0.3 1016257
14:00−11w359499 0.2 1017392
17:00−12w469499 0.4 1018371
20:00−15w489699 0.1 1019291
2 march, tue
tue223:00−17w379999 0.2 1020167
02:00−18w26100100 0.0 1020135
05:00−20w38100100 0.1 1020193
08:00−21w37100100 0.1 1020146
11:00−18w48100100 0.1 1019263
14:00−14wsw599698 0.0 1018341
17:00−15wsw4109594 0.0 1017351
20:00−18sw41199100 0.0 1016304
3 march, wed
wed323:00−16sw51396100 0.1 1014383
02:00−13ssw41596100 0.3 1011414
05:00−9ssw51593100 0.7 1008616
08:00−5ssw61395100 1.2 1006964
11:00−4ssw61295100 2.4 1004878
14:00−3ssw71195100 1.5 1002975
17:00−3sw61096100 3.1 1001887
20:00−4sw51096100 1.3 1001664
4 march, thu
thu423:00−6w51195100 2.1 1003560
02:00−8w5119499 0.4 1004486
05:00−10w51195100 0.5 1005431
08:00−11wnw41095100 0.1 1006345
11:00−8wnw5993100 0.1 1008596
14:00−7wnw5887100 0.1 1009999
17:00−8wnw598897 0.2 1011851
20:00−12wnw41095100 0.1 1014435